GSAT0207 (PRN E07)

Last updated on Feb. 20, 2020, 4:41 a.m. UTC

1 41859U 16069A   20050.36542194 -.00000034  00000-0  00000-0 0  9998
2 41859  54.6353 165.1488 0003405 297.0447  62.8811  1.70473736 20188
UTC
Height (km)
Latitude
Longitude
Inclination
Orbital Period
UTC large
Height (km)
Speed (km/s)
/
Latitude / Longitude
Inclination (degrees)
Orbital Period (minutes)
Azimuth
Elevation
Range (km)
Doppler Factor
iOS Compass Heading
iOS Angle

Next 30 passes for location: Hong Kong

Rise time Rise Azimuth (degrees) Set time Set Azimuth (degrees) Duration Max altitude (degrees)

No matching passes for this satellites